Wind_Speed
31 31 31 31 31 32 32 33 32 32 32 32 32 33 33 32 32 32 32 32 33 33 32 32 32 32 32 33 33 33 33 34 33 34 34 34 34 34 35 34 34 35 35
33 33 33 33 33 33 33 34 34 33 33 33 33 33 34 33 32 32 33 33 34 34 34 34 33 33 32 33 34 35 34 34 35 35 35 36 36 36 36 36 35 35 36
34 35 35 35 35 35 35 34 34 34 34 34 34 34 34 33 33 33 33 34 35 35 35 35 35 36 35 35 35 35 35 35 36 36 36 37 38 37 37 37 37 37 37
36 36 36 36 36 36 36 36 35 35 35 35 35 34 34 34 34 34 34 34 34 35 35 35 35 35 35 35 36 36 36 36 37 37 37 38 38 38 39 39 39 39 39
37 37 37 37 37 37 37 37 37 37 37 36 36 36 35 34 35 34 34 34 34 34 35 35 36 35 36 36 37 38 38 38 39 38 38 39 39 39 40 41 41 41 41
38 38 38 38 38 38 38 38 38 38 38 37 37 37 37 36 35 35 36 36 36 35 35 34 35 36 37 37 39 40 40 39 40 39 39 39 40 41 41 42 42 42 42
39 40 40 40 39 39 39 39 39 39 38 38 38 37 37 37 36 36 36 36 36 36 35 35 35 36 37 38 39 40 40 40 40 40 40 40 41 42 43 43 43 43 44
40 41 42 42 41 41 41 41 40 40 40 39 39 39 38 38 37 36 36 37 37 36 37 37 37 36 36 37 38 39 40 40 39 40 41 42 43 44 44 44 45 45 45
41 42 43 43 43 43 42 42 42 41 41 41 41 40 39 39 38 37 37 37 37 37 36 37 37 37 38 38 38 39 39 40 40 40 42 42 43 44 45 45 45 45 45
42 42 43 44 44 44 44 43 43 42 42 42 42 41 41 40 40 38 38 38 38 37 37 38 38 39 39 40 40 39 40 40 40 40 41 42 42 43 45 45 45 45 46
43 43 43 44 45 44 44 44 43 43 42 42 42 42 42 42 41 40 40 40 40 39 39 39 39 39 40 40 41 41 40 41 41 41 42 42 43 44 44 44 45 45 46
43 43 43 44 44 45 45 45 45 45 44 44 44 43 43 42 42 42 42 41 41 41 41 41 40 39 40 41 41 42 42 42 42 42 42 43 43 43 44 45 45 45 46
43 43 43 43 43 44 45 45 45 46 45 45 45 45 45 44 43 43 43 43 42 42 42 42 42 42 42 42 43 43 43 43 43 43 43 44 44 44 45 45 46 46 45
41 42 42 42 43 43 45 45 46 46 46 46 46 46 46 45 44 44 44 43 43 43 43 43 43 44 44 43 43 44 44 44 44 44 44 45 45 45 45 45 46 46 46
40 40 40 41 41 41 43 44 45 45 45 46 46 46 46 45 45 45 44 44 44 44 44 43 43 43 43 43 43 44 44 45 45 45 45 46 46 45 45 46 47 47 46
39 38 39 39 40 41 43 43 43 43 44 44 45 45 45 45 44 44 44 43 44 45 44 43 43 43 43 43 43 44 44 45 46 47 47 46 46 46 46 47 48 47 47
39 39 38 38 38 39 41 42 43 43 43 43 43 44 44 44 45 44 43 43 43 43 43 42 43 42 42 42 43 43 44 45 46 46 47 47 46 46 47 48 47 46 46
39 38 38 37 38 38 39 40 41 41 41 41 41 41 42 42 43 43 43 43 43 43 43 42 43 42 42 43 43 43 44 45 46 46 46 46 46 47 47 47 47 46 45
38 38 37 37 37 38 38 38 38 38 38 38 39 40 41 41 41 41 41 42 43 42 42 42 42 42 42 42 42 42 44 45 46 46 47 47 47 47 47 47 46 46 45
37 36 36 36 37 37 37 37 37 37 37 38 38 39 40 40 39 39 39 40 40 40 41 42 42 42 42 42 42 42 43 44 45 46 46 47 47 47 46 46 46 45 45
36 36 36 36 36 35 35 35 36 36 36 37 37 37 37 38 38 38 38 38 38 39 39 40 41 41 41 41 42 43 43 44 44 45 44 45 45 45 44 44 43 44 44
36 36 36 36 35 34 34 34 35 36 36 36 36 36 37 37 37 37 36 37 37 38 38 38 39 40 41 42 43 42 43 43 43 43 43 43 43 43 43 42 43 43 43
35 36 36 35 35 34 34 34 34 35 35 35 35 35 35 35 35 36 36 37 37 37 37 38 39 40 41 42 42 43 42 42 42 43 42 42 42 42 42 41 41 41 41
34 34 35 35 34 34 35 35 35 35 35 35 34 34 35 35 35 34 35 37 37 37 37 38 39 39 40 41 41 41 42 42 42 42 42 41 40 39 39 39 39 39 39
33 33 33 33 34 34 34 34 34 34 34 33 33 34 34 35 35 35 36 37 38 38 37 38 38 39 39 40 40 40 40 40 40 39 39 39 38 37 36 36 37 38 38
32 32 32 32 32 33 33 33 34 34 34 33 33 34 35 35 35 35 36 36 37 37 36 37 37 38 38 38 39 39 39 39 39 38 38 38 36 36 35 36 37 37 37
Wind_Direction
266 268 269 269 270 270 270 270 271 272 274 275 275 273 272 272 271 270 269 267 268 267 267 267 267 267 268 269 269 269 270 270 270 271 271 271 272 274 273 274 276 278 278
266 267 269 270 270 270 270 270 270 271 272 273 275 274 272 272 273 271 270 268 266 266 266 267 266 266 267 269 270 269 269 270 271 271 271 271 272 275 275 274 276 278 279
266 267 268 269 269 269 270 270 270 270 270 272 273 274 273 272 273 272 270 269 267 266 267 268 267 267 268 270 270 270 271 271 271 271 272 272 273 274 275 275 276 278 279
266 266 267 268 269 269 269 270 270 269 270 271 272 273 274 274 273 272 270 269 269 268 267 267 267 267 268 270 270 271 273 273 272 273 273 273 273 274 275 275 277 278 279
266 266 266 268 268 269 269 269 270 270 270 270 271 272 274 274 273 273 271 269 270 270 268 267 267 268 269 270 271 272 273 274 274 275 275 275 274 275 275 276 278 278 279
266 266 266 267 268 268 268 269 270 270 270 270 271 273 274 274 273 273 272 272 272 271 269 269 268 269 270 271 271 272 273 274 275 277 276 277 276 276 277 277 278 277 278
265 265 266 267 268 268 268 268 268 269 269 269 270 272 273 274 274 274 273 272 272 271 269 270 271 270 271 271 271 272 273 274 275 276 276 277 278 278 278 278 278 277 279
267 266 266 266 267 267 267 268 268 268 268 269 270 271 272 272 273 274 274 273 271 270 270 271 273 272 272 273 273 275 275 275 275 275 275 277 278 278 278 279 278 278 278
268 268 267 266 266 266 266 267 267 267 267 268 268 269 271 271 272 272 273 274 273 272 271 272 272 273 272 273 275 276 276 276 276 276 277 278 279 279 280 280 280 279 278
268 267 266 266 266 265 265 265 266 267 267 267 267 268 270 270 271 270 272 273 273 273 272 273 274 274 273 273 275 276 276 277 277 278 278 279 280 280 279 280 280 280 279
267 267 267 266 266 265 265 265 265 266 267 266 266 267 268 269 269 270 270 271 273 273 274 274 276 276 275 275 276 277 278 277 278 279 279 280 281 281 280 280 281 282 281
268 267 267 266 266 265 264 265 266 266 266 266 266 266 268 268 269 269 269 270 271 273 274 275 276 276 277 277 277 277 278 278 278 280 281 282 282 282 282 282 282 282 282
268 267 266 266 266 265 265 265 265 266 266 266 266 266 267 268 268 268 269 270 271 272 274 275 276 276 276 277 277 277 278 279 279 280 281 282 283 283 283 282 282 282 282
268 267 265 265 265 266 265 264 265 265 265 266 266 266 266 266 267 268 268 269 270 272 273 274 276 277 276 276 277 277 277 278 279 281 281 282 282 283 284 283 282 281 281
267 266 265 266 266 266 265 265 265 265 265 265 265 265 265 266 266 267 267 268 270 271 273 274 275 276 276 276 276 276 276 278 280 282 282 282 282 283 283 284 283 282 281
267 266 266 266 267 266 267 266 266 266 266 265 265 265 265 265 265 266 267 268 270 271 272 273 274 275 275 275 274 275 277 279 281 281 282 282 282 283 284 285 285 283 282
267 267 267 267 268 269 268 266 266 266 266 267 266 265 265 265 265 266 266 268 270 271 271 272 274 275 275 275 274 276 277 279 281 282 282 282 282 283 284 285 286 284 283
267 268 268 268 268 268 267 266 266 266 267 267 266 266 266 265 266 266 267 268 269 271 272 272 273 275 275 275 276 276 278 280 281 282 283 282 283 284 284 285 285 284 283
268 268 267 268 268 267 266 266 266 266 266 266 267 267 267 266 266 267 268 269 270 271 272 272 272 273 274 276 277 279 280 281 281 282 283 283 284 285 285 284 284 283 283
267 267 267 267 267 266 265 265 266 265 266 267 268 268 268 267 267 268 269 271 271 271 272 272 273 273 274 276 277 280 281 283 282 282 283 284 285 286 285 285 284 283 282
268 267 267 267 266 265 264 264 265 266 267 267 268 269 269 267 267 268 269 270 271 271 272 273 273 273 274 275 278 281 282 282 283 283 284 285 285 285 286 285 284 283 283
267 266 266 265 264 264 264 265 265 266 267 268 269 269 269 267 267 268 269 270 271 271 272 274 275 275 275 277 278 281 283 283 283 283 283 284 284 285 285 286 285 284 284
266 266 264 262 262 263 264 265 266 267 268 269 269 268 269 267 266 268 269 271 272 272 275 276 276 276 277 278 279 281 283 284 285 285 284 283 284 285 285 286 285 284 284
267 266 263 261 261 262 264 266 268 268 268 269 269 268 270 269 267 269 270 272 273 274 276 276 277 278 279 280 281 283 284 284 285 286 285 286 285 285 285 286 285 285 286
267 265 262 261 261 262 263 265 267 267 267 268 268 269 270 270 267 268 270 272 274 275 276 277 278 280 280 281 282 283 284 285 285 286 286 286 285 284 285 286 287 288 287
267 264 262 262 262 263 264 265 266 266 267 267 269 269 270 269 267 269 270 273 275 275 276 278 279 281 281 282 283 284 285 285 286 285 284 284 284 285 285 286 287 287 287
Height
5795 5795 5795 5795 5795 5794 5794 5794 5794 5794 5793 5792 5791 5791 5790 5789 5788 5788 5788 5787 5787 5787 5787 5787 5787 5787 5787 5787 5786 5786 5786 5786 5786 5785 5785 5785 5785 5784 5784 5783 5782 5781 5780
5787 5788 5788 5788 5787 5787 5787 5786 5786 5786 5786 5785 5784 5783 5782 5781 5781 5780 5780 5780 5779 5779 5779 5779 5779 5780 5779 5779 5779 5778 5778 5778 5778 5777 5777 5777 5777 5776 5776 5775 5774 5773 5772
5779 5780 5780 5780 5780 5779 5779 5778 5778 5778 5778 5777 5776 5775 5774 5774 5773 5772 5772 5771 5771 5771 5771 5771 5771 5771 5771 5771 5771 5770 5770 5770 5769 5769 5769 5768 5768 5768 5767 5766 5765 5764 5762
5771 5771 5771 5772 5771 5771 5771 5771 5770 5770 5770 5769 5768 5767 5767 5766 5765 5764 5764 5763 5763 5763 5763 5762 5762 5763 5763 5763 5762 5762 5762 5761 5761 5760 5760 5759 5759 5758 5758 5757 5755 5754 5753
5762 5762 5762 5763 5762 5763 5763 5762 5762 5762 5761 5761 5760 5759 5759 5758 5757 5756 5755 5755 5755 5755 5754 5754 5754 5754 5754 5754 5753 5753 5753 5752 5752 5751 5751 5750 5750 5749 5747 5746 5745 5744 5743
5752 5753 5753 5753 5753 5754 5754 5754 5753 5753 5753 5752 5752 5751 5750 5749 5749 5748 5747 5747 5746 5746 5746 5746 5746 5746 5745 5745 5744 5744 5743 5743 5743 5742 5741 5740 5740 5738 5737 5736 5735 5733 5732
5742 5743 5743 5743 5744 5744 5744 5744 5744 5744 5744 5743 5743 5743 5742 5741 5740 5740 5739 5739 5738 5738 5738 5738 5737 5737 5737 5736 5735 5734 5734 5733 5733 5732 5731 5730 5729 5728 5726 5725 5724 5722 5721
5732 5732 5733 5733 5734 5734 5734 5734 5734 5734 5734 5734 5734 5733 5733 5733 5732 5732 5731 5730 5730 5729 5729 5729 5729 5728 5727 5727 5726 5725 5724 5723 5722 5721 5720 5719 5718 5716 5715 5713 5712 5710 5709
5721 5721 5722 5722 5723 5723 5724 5724 5724 5724 5724 5724 5724 5724 5724 5724 5723 5723 5722 5721 5721 5720 5720 5720 5719 5719 5718 5717 5716 5715 5714 5713 5711 5710 5709 5708 5706 5705 5703 5702 5700 5698 5697
5709 5710 5710 5711 5711 5712 5712 5713 5713 5714 5714 5714 5714 5714 5714 5714 5714 5714 5714 5713 5712 5711 5711 5711 5710 5709 5708 5708 5707 5705 5704 5702 5701 5699 5698 5697 5695 5694 5692 5691 5689 5687 5685
5697 5697 5698 5698 5699 5700 5701 5701 5702 5702 5703 5703 5703 5704 5704 5704 5704 5704 5704 5704 5703 5702 5702 5701 5701 5699 5699 5697 5696 5695 5694 5692 5691 5689 5688 5686 5684 5683 5681 5679 5678 5676 5674
5685 5685 5685 5686 5687 5688 5689 5689 5690 5691 5691 5692 5692 5693 5693 5694 5694 5694 5694 5694 5693 5692 5691 5691 5691 5689 5688 5687 5686 5685 5683 5682 5680 5679 5677 5675 5674 5672 5670 5668 5666 5664 5662
5673 5673 5674 5674 5675 5675 5676 5677 5678 5679 5679 5680 5680 5681 5682 5682 5683 5683 5683 5683 5683 5682 5681 5680 5680 5679 5678 5677 5675 5674 5673 5671 5670 5668 5667 5665 5663 5661 5659 5657 5655 5652 5650
5662 5662 5662 5663 5663 5663 5664 5665 5666 5667 5667 5668 5668 5669 5670 5671 5671 5672 5672 5672 5672 5672 5671 5670 5669 5668 5667 5666 5665 5663 5662 5661 5659 5658 5656 5654 5652 5649 5647 5645 5643 5641 5638
5650 5650 5651 5651 5651 5651 5652 5652 5653 5654 5655 5655 5656 5657 5658 5659 5659 5660 5660 5660 5661 5661 5661 5660 5659 5657 5656 5655 5654 5653 5652 5650 5648 5646 5644 5642 5640 5638 5635 5633 5630 5628 5626
5639 5639 5639 5640 5640 5640 5640 5640 5641 5642 5642 5643 5644 5644 5645 5646 5647 5648 5648 5648 5648 5649 5649 5649 5648 5647 5645 5644 5643 5642 5640 5639 5637 5635 5633 5631 5628 5626 5623 5621 5618 5615 5613
5628 5628 5628 5629 5629 5628 5628 5628 5629 5630 5630 5631 5632 5632 5633 5634 5635 5636 5636 5637 5637 5637 5637 5638 5636 5635 5634 5633 5632 5630 5629 5627 5625 5623 5621 5619 5616 5614 5611 5609 5606 5603 5601
5618 5618 5618 5618 5618 5618 5617 5617 5618 5619 5619 5620 5620 5621 5622 5623 5623 5624 5625 5625 5625 5625 5625 5626 5625 5624 5623 5622 5620 5619 5617 5615 5613 5611 5608 5606 5604 5602 5599 5596 5594 5591 5589
5607 5607 5607 5607 5607 5607 5607 5607 5608 5608 5609 5609 5610 5610 5611 5612 5613 5613 5613 5614 5614 5614 5613 5614 5614 5612 5611 5610 5609 5607 5605 5603 5601 5598 5596 5594 5591 5589 5586 5584 5581 5579 5577
5597 5597 5597 5597 5597 5597 5597 5597 5598 5598 5599 5599 5599 5600 5600 5601 5602 5602 5602 5602 5602 5602 5602 5602 5602 5601 5600 5599 5597 5596 5594 5591 5589 5586 5584 5581 5579 5576 5574 5572 5570 5568 5565
5586 5586 5586 5586 5587 5587 5587 5588 5588 5588 5589 5589 5589 5590 5590 5590 5591 5591 5591 5592 5592 5591 5591 5590 5590 5589 5589 5587 5586 5585 5583 5580 5578 5575 5573 5570 5568 5566 5563 5560 5558 5555 5553
5575 5576 5576 5576 5577 5577 5578 5578 5578 5579 5579 5579 5580 5580 5580 5580 5580 5581 5581 5581 5581 5581 5580 5579 5579 5578 5577 5576 5575 5573 5571 5569 5567 5565 5563 5560 5557 5555 5552 5549 5546 5544 5541
5565 5565 5565 5566 5567 5568 5568 5569 5569 5569 5569 5570 5570 5570 5570 5570 5570 5571 5571 5571 5571 5570 5569 5569 5568 5567 5566 5566 5564 5563 5560 5557 5555 5553 5551 5550 5546 5544 5541 5538 5535 5533 5530
5555 5555 5555 5556 5557 5558 5559 5559 5559 5559 5560 5560 5560 5560 5560 5560 5560 5561 5561 5561 5560 5560 5559 5559 5558 5557 5555 5554 5552 5551 5549 5547 5545 5541 5539 5538 5536 5533 5531 5527 5525 5522 5519
5545 5545 5546 5547 5548 5549 5549 5550 5550 5550 5550 5550 5550 5550 5550 5550 5550 5551 5551 5551 5551 5550 5549 5548 5547 5545 5544 5542 5541 5539 5538 5536 5534 5532 5529 5527 5525 5523 5521 5518 5515 5512 5509
5536 5536 5537 5537 5538 5539 5540 5540 5540 5540 5541 5541 5541 5541 5540 5540 5540 5540 5541 5541 5540 5540 5539 5538 5536 5535 5533 5532 5530 5528 5527 5525 5523 5521 5519 5516 5514 5512 5512 5510 5505 5502 5499